{"data":{"norad_id":67112,"intl_designator":"2025-299L","name":"STARLINK-35906","alt_names":[],"object_type":"PAYLOAD","status":"ACTIVE","operator":null,"country":"US","launch_date":"2025-12-15","launch_site_code":"AFETR","launch_vehicle":null,"mission":null,"orbit_class":"UNKNOWN","rcs_meters":null,"size_class":null,"mass_kg":null,"dimensions":null,"purposes":["comms"],"wikipedia_slug":null,"has_3d_model":false,"image_url":null,"decayed_at":null,"tle_current":{"epoch":"2026-09-20T02:04:19.822656Z","epoch_age_seconds":114465,"freshness":"FRESH","line1":"1 67112U 25299L   26263.08634054  .00009709  00000+0  36184-3 0  9992","line2":"2 67112  43.0021 151.4045 0001690 272.8392  87.2266 15.27583079 42844","mean_motion":15.27583079,"eccentricity":0.000169,"inclination_deg":43.0021,"raan_deg":151.4045,"arg_perigee_deg":272.8392,"mean_anomaly_deg":87.2266,"bstar":0.00036184,"rev_number":4284,"period_min":94.266558709374,"perigee_km":481.88033752936,"apogee_km":484.19941531359,"semimajor_km":6861.1768764215,"source":"CELESTRAK","updated_at":"2026-09-21T09:00:36.105686Z"}}}